Stuttgart, Germany

10:55 AM CEST on August 30, 2016 (GMT +0200)
Stuttgart

Weather History for 10739 - March, 2014

Change the Weather History Date:

Monday, March 3, 2014

  Actual Average Record
Temperature  
Mean Temperature 41 °F -  
Max Temperature 49 °F 50 °F - ()
Min Temperature 33 °F 34 °F - ()
Degree Days  
Heating Degree Days 24    
Moisture  
Dew Point 35 °F    
Average Humidity 70    
Maximum Humidity 90    
Minimum Humidity 48    
Precipitation  
Precipitation 0.00 in - - ()
Sea Level Pressure  
Sea Level Pressure 29.41 in    
Wind  
Wind Speed 4 mph ()    
Max Wind Speed 9 mph    
Max Gust Speed -    
Visibility 5.7 miles    
Events Rain    
T = Trace of Precipitation, MM = Missing Value Source: Averaged Metar Reports

Daily Weather History Graph

Daily Weather History Graph

Search for Another Location

Airport or City:

Trip Planner

Search our weather history database for the weather conditions in past years. The results will help you decide how hot, cold, wet, or windy it might be!

Date:

Astronomy

Mar. 03, 2014 Rise Set
Actual Time 7:01 AM CET 6:09 PM CET
Civil Twilight 6:30 AM CET 6:41 PM CET
Nautical Twilight 5:53 AM CET 7:17 PM CET
Astronomical Twilight 5:16 AM CET 7:54 PM CET
Moon 7:45 AM CET (3/3) 9:11 PM CET (3/3)
Length of Visible Light 12h 11m
Length of Day
11h 07m
Waxing Crescent, 6% of the Moon is Illuminated
Mar 3
Waxing Crescent
Mar 8
First Quarter
Mar 16
Full
Mar 24
Last Quarter
Mar 30
New

Hourly Weather History & Observations

Time (CET) Temp. Dew Point Humidity Pressure Visibility Wind Dir Wind Speed Gust Speed Precip Events Conditions
12:00 AM 37 °F 34 °F 84% 29.52 in 4 mi ESE 4.5 mph - -   Mist
1:00 AM 37 °F 35 °F 87% 29.49 in 5 mi ESE 2.2 mph - -  
2:00 AM 36 °F 33 °F 87% 29.46 in 4 mi SSE 2.2 mph - -   Mist
3:00 AM 36 °F 33 °F 87% 29.43 in 4 mi SSE 4.5 mph - -   Mist
4:00 AM 36 °F 33 °F 85% 29.39 in 3 mi SSE 6.7 mph - -   Mist
5:00 AM 36 °F 34 °F 87% 29.38 in 4 mi South 4.5 mph - -   Mist
6:00 AM 35 °F 33 °F 87% 29.38 in 3 mi SE 4.5 mph - -   Mist
7:00 AM 35 °F 33 °F 89% 29.37 in 4 mi SSE 4.5 mph - -   Mist
8:00 AM 35 °F 33 °F 90% 29.37 in 4 mi SSE 8.9 mph - -   Mist
9:00 AM 38 °F 34 °F 81% 29.39 in 5 mi SSE 6.7 mph - -   Overcast
10:00 AM 41 °F 34 °F 68% 29.39 in 9 mi South 4.5 mph - -  
11:00 AM 42 °F 36 °F 72% 29.39 in 19 mi South 8.9 mph - - Rain Light Drizzle
12:00 PM 46 °F 38 °F 64% 29.39 in 25 mi South 8.9 mph - - Rain Rain
1:00 PM 48 °F 37 °F 56% 29.37 in 37 mi SW 8.9 mph - -   Clear
2:00 PM 48 °F 35 °F 50% 29.36 in 44 mi WSW 8.9 mph - -   Overcast
3:00 PM 47 °F 36 °F 54% 29.38 in 44 mi NW 8.9 mph - -   Overcast
4:00 PM 48 °F 35 °F 48% 29.38 in 44 mi NE 2.2 mph - -   Overcast
5:00 PM 47 °F 36 °F 54% 29.39 in 44 mi ESE 4.5 mph - -  
6:00 PM 47 °F 35 °F 52% 29.39 in 44 mi West 2.2 mph - -   Overcast
7:00 PM 46 °F 35 °F 54% 29.41 in 44 mi WNW 4.5 mph - -   Overcast
8:00 PM 45 °F 35 °F 56% 29.42 in 44 mi West 4.5 mph - -   Overcast
10:00 PM 43 °F 34 °F 60% 29.44 in 44 mi WSW 4.5 mph - -   Overcast
11:00 PM 43 °F 33 °F 57% 29.45 in 44 mi SW 4.5 mph - -